[[{"header":{"parameterUnit":"m.s-1","parameterCategory":1,"la1":30.2991,"la2":30.254,"lo1":-89.0895,"lo2":-89.0444,"dy":0.0017,"dx":0.0017,"nx":28,"ny":28,"refTime":"2024-06-13T09:00:00:Z","depth":0,"parameterNumber":2,"parameterNumberName":"U-component_of_WINDS"},"data":[0,0,0,0,0,0,0,0,0,0,0,0,0,0,0,0,0,0,0,0,0,0,0,0,0,0,0,0,0,0,0,0,0,0,0,0,0,0,0,0,0,0,0,0,0,0,0,0,0,0,0,0,0,0,0,0,0,0,-1.5404,-1.5404,0,-1.5379,-1.5379,-1.5379,-1.5337,-1.5336,-1.5336,-1.5335,-1.531,-1.531,-1.531,0,0,0,0,0,0,0,0,0,0,0,0,0,-1.5419,-1.5419,-1.5404,-1.5404,-1.5404,-1.5379,-1.5379,-1.5379,-1.5337,-1.5336,-1.5335,-1.5334,-1.531,-1.531,-1.531,0,0,0,0,0,0,0,0,0,0,0,0,0,-1.5406,-1.5419,-1.5404,-1.538,-1.5378,-1.5379,-1.5379,-1.5379,-1.5337,-1.5336,-1.5335,-1.5334,-1.531,-1.531,-1.531,-1.5333,0,0,-1.531,-1.531,0,0,0,0,0,0,0,0,-1.5406,-1.5405,-1.5384,-1.5382,-1.5379,-1.536,-1.5375,-1.5363,-1.5338,-1.5353,-1.5335,-1.5333,-1.5327,-1.5326,-1.5324,-1.5332,-1.5331,-1.531,-1.531,-1.531,-1.531,0,0,0,0,0,0,0,-1.5407,-1.5406,-1.5394,-1.5384,-1.5381,-1.5372,-1.5368,-1.5373,-1.5347,-1.5351,-1.5348,-1.5346,-1.5326,-1.5324,-1.5323,-1.5331,-1.531,-1.531,-1.531,-1.531,-1.5361,-1.5362,0,0,0,0,0,0,-1.5412,-1.5407,-1.5395,-1.5394,-1.539,-1.5372,-1.5369,-1.5367,-1.5347,-1.5342,-1.5347,-1.5344,-1.5324,-1.5323,-1.5322,-1.535,-1.531,-1.531,-1.531,-1.536,-1.5362,-1.5363,0,0,0,0,0,0,-1.5412,-1.5411,-1.5396,-1.54,-1.5397,-1.5373,-1.5372,-1.5368,-1.5365,-1.5343,-1.5339,-1.5349,-1.5323,-1.5322,-1.5332,-1.5349,-1.531,-1.531,-1.5358,-1.536,-1.5362,-1.5406,0,0,0,0,0,0,-1.5413,-1.5411,-1.5419,-1.54,-1.5397,-1.5406,-1.5373,-1.5368,-1.5366,-1.5362,-1.5344,-1.534,-1.5322,-1.5332,-1.5332,-1.5348,-1.531,-1.5357,-1.5359,-1.5362,-1.5403,-1.5409,-1.5415,0,0,0,0,0,-1.5413,-1.5432,-1.542,-1.5418,-1.5406,-1.5406,-1.5405,-1.5383,-1.5367,-1.5375,-1.5362,-1.5341,-1.5347,-1.5333,-1.5333,-1.5349,-1.5356,-1.5359,-1.5361,-1.54,-1.5408,-1.5414,0,0,0,0,0,0,-1.5452,-1.5428,-1.5415,-1.5427,-1.542,-1.5399,-1.5409,-1.5392,-1.5388,-1.5384,-1.5358,-1.5355,-1.5369,-1.536,-1.5345,-1.5373,-1.5348,-1.5351,-1.5378,-1.5385,-1.5391,-1.5393,-1.531,0,0,0,0,0,-1.5463,-1.5464,-1.5444,-1.5457,-1.5454,-1.5433,-1.5432,-1.5416,-1.5407,-1.5403,-1.539,-1.5383,-1.5383,-1.5384,-1.5383,-1.5402,-1.5399,-1.5414,-1.542,-1.5425,-1.5427,-1.544,-1.5447,-1.5373,-1.5373,-1.5373,0,0,-1.5483,-1.547,-1.5473,-1.5465,-1.5456,-1.546,-1.543,-1.5434,-1.5437,-1.5404,-1.5413,-1.5404,-1.5394,-1.5409,-1.5415,-1.5402,-1.5448,-1.5428,-1.5432,-1.5432,-1.5444,-1.5451,-1.5457,-1.5375,-1.5374,-1.5374,0,0,-1.5523,-1.5513,-1.5524,-1.5517,-1.5506,-1.5493,-1.5496,-1.5479,-1.5472,-1.5481,-1.5457,-1.5461,-1.5462,-1.5456,-1.5454,-1.5497,-1.5478,-1.5497,-1.5527,-1.554,-1.5546,-1.5551,-1.5568,-1.5574,-1.55,-1.55,-1.55,0,-1.555,-1.5554,-1.5532,-1.5539,-1.5537,-1.5509,-1.5521,-1.5516,-1.5505,-1.5505,-1.5491,-1.5493,-1.5484,-1.55,-1.5511,-1.5509,-1.5513,-1.5498,-1.5547,-1.5552,-1.5556,-1.5572,-1.5578,-1.5503,-1.5502,-1.5502,-1.5502,0,-1.5589,-1.5592,-1.5603,-1.5594,-1.5594,-1.5603,-1.5584,-1.5587,-1.5573,-1.5561,-1.5573,-1.5562,-1.5559,-1.5562,-1.5547,-1.5576,-1.5569,-1.5551,-1.5526,-1.5566,-1.5581,-1.5586,-1.5506,-1.5505,-1.5505,-1.5504,0,0,-1.5649,-1.5631,-1.5635,-1.5633,-1.562,-1.5623,-1.5633,-1.5632,-1.5635,-1.563,-1.5639,-1.5642,-1.5627,-1.5624,-1.5609,-1.562,-1.5658,-1.5602,-1.5601,-1.5613,-1.5692,-1.5705,-1.5713,-1.5646,-1.5647,-1.5648,-1.5693,0,-1.5686,-1.5701,-1.5684,-1.5703,-1.5708,-1.5683,-1.5692,-1.5687,-1.5677,-1.5681,-1.5671,-1.5674,-1.5653,-1.5652,-1.5662,-1.5651,-1.5673,-1.5648,-1.5655,-1.5656,-1.5658,-1.572,-1.5733,-1.5776,-1.5699,-1.5699,-1.57,0,-1.5731,-1.573,-1.575,-1.574,-1.5741,-1.5749,-1.5748,-1.5751,-1.5746,-1.5739,-1.5738,-1.5721,-1.5732,-1.5708,-1.5724,-1.5707,-1.571,-1.5706,-1.5707,-1.5707,-1.568,-1.5722,-1.5789,-1.5796,-1.5709,-1.5708,-1.5707,0,-1.5775,-1.5778,-1.5791,-1.5789,-1.5777,-1.5784,-1.578,-1.5773,-1.5775,-1.5774,-1.5775,-1.5776,-1.5777,-1.5779,-1.5764,-1.5748,-1.5783,-1.5757,-1.5778,-1.5779,-1.5786,-1.5786,-1.5855,-1.5788,-1.5787,-1.5787,-1.5787,0,-1.5819,-1.5832,-1.5811,-1.5819,-1.5835,-1.5816,-1.5832,-1.5825,-1.5821,-1.5828,-1.5807,-1.5815,-1.5795,-1.5801,-1.579,-1.5806,-1.5806,-1.5802,-1.5799,-1.5804,-1.5804,-1.5805,-1.5801,-1.5789,-1.5789,-1.5788,-1.5788,0,-1.587,-1.5856,-1.5869,-1.5858,-1.5855,-1.5868,-1.5858,-1.5867,-1.5857,-1.5868,-1.5869,-1.5855,-1.5861,-1.5847,-1.5851,-1.5844,-1.5868,-1.586,-1.587,-1.5867,-1.589,-1.5889,-1.5962,-1.5972,-1.5897,-1.5898,-1.5899,0,-1.5898,-1.5909,-1.5899,-1.5903,-1.59,-1.5906,-1.5908,-1.5892,-1.5895,-1.5892,-1.5901,-1.5906,-1.5909,-1.5922,-1.5912,-1.5917,-1.5909,-1.5935,-1.5909,-1.5915,-1.5911,-1.5911,-1.5913,-1.594,-1.5941,-1.5941,-1.5942,0,-1.5952,-1.5945,-1.5949,-1.5951,-1.5955,-1.5955,-1.5955,-1.596,-1.5942,-1.5947,-1.5954,-1.5957,-1.5963,-1.5969,-1.5972,-1.5969,-1.5954,-1.5951,-1.5956,-1.5961,-1.5967,-1.5966,-1.5885,-1.5948,-1.5948,-1.5947,-1.5947,-1.5947,-1.5993,-1.6002,-1.5998,-1.6004,-1.6002,-1.6003,-1.6011,-1.6004,-1.6009,-1.6013,-1.6003,-1.6014,-1.6011,-1.6014,-1.6013,-1.6022,-1.601,-1.6017,-1.6019,-1.6022,-1.6026,-1.5966,-1.6022,-1.6022,-1.6022,-1.6021,-1.6021,0,-1.6046,-1.6043,-1.6049,-1.605,-1.6055,-1.6041,-1.6041,-1.6046,-1.6055,-1.6055,-1.6059,-1.6069,-1.6076,-1.6069,-1.6075,-1.6084,-1.6077,-1.6086,-1.6086,-1.6086,-1.6035,-1.603,-1.6092,-1.6092,-1.6092,-1.6092,-1.6092,-1.6092,-1.6074,-1.609,-1.6084,-1.6099,-1.6096,-1.6106,-1.6108,-1.611,-1.6109,-1.6122,-1.6128,-1.6123,-1.6121,-1.6127,-1.6134,-1.6132,-1.6136,-1.6147,-1.6143,-1.6096,-1.6089,-1.6082,-1.6078,-1.6148,-1.6148,-1.6193,-1.6193,-1.6194]},{"header":{"parameterUnit":"m.s-1","parameterCategory":1,"la1":30.2991,"la2":30.254,"lo1":-89.0895,"lo2":-89.0444,"dy":0.0017,"dx":0.0017,"nx":28,"ny":28,"refTime":"2024-06-13T09:00:00:Z","depth":0,"parameterNumber":3,"parameterNumberName":"V-component_of_WINDS"},"data":[0,0,0,0,0,0,0,0,0,0,0,0,0,0,0,0,0,0,0,0,0,0,0,0,0,0,0,0,0,0,0,0,0,0,0,0,0,0,0,0,0,0,0,0,0,0,0,0,0,0,0,0,0,0,0,0,0,0,3.2507,3.2507,0,3.253,3.253,3.253,3.2603,3.2604,3.2606,3.2607,3.2626,3.2625,3.2624,0,0,0,0,0,0,0,0,0,0,0,0,0,3.252,3.252,3.2507,3.2507,3.2507,3.253,3.253,3.253,3.2602,3.2604,3.2606,3.2608,3.2626,3.2625,3.2623,0,0,0,0,0,0,0,0,0,0,0,0,0,3.2526,3.2519,3.2507,3.2546,3.255,3.253,3.253,3.253,3.2602,3.2604,3.2607,3.2609,3.2626,3.2625,3.2623,3.2565,0,0,3.2619,3.2618,0,0,0,0,0,0,0,0,3.2525,3.2525,3.254,3.2543,3.2548,3.2566,3.2542,3.2542,3.2601,3.2582,3.2607,3.261,3.2603,3.2604,3.2603,3.2566,3.2567,3.2618,3.2618,3.2617,3.2616,0,0,0,0,0,0,0,3.2525,3.2525,3.2516,3.254,3.2545,3.2561,3.2565,3.2542,3.2579,3.2584,3.2589,3.2591,3.2606,3.2604,3.2604,3.2567,3.2619,3.2617,3.2616,3.2616,3.2483,3.248,0,0,0,0,0,0,3.252,3.2524,3.2515,3.2516,3.2542,3.2559,3.2563,3.2557,3.2579,3.2585,3.2589,3.2595,3.2605,3.2605,3.2605,3.2537,3.2617,3.2615,3.2615,3.2485,3.2482,3.2479,0,0,0,0,0,0,3.252,3.2518,3.2514,3.2522,3.2522,3.2556,3.255,3.2557,3.2555,3.2583,3.259,3.2581,3.2607,3.2607,3.2575,3.2538,3.2615,3.2613,3.2488,3.2484,3.2481,3.2401,0,0,0,0,0,0,3.252,3.2518,3.2497,3.2521,3.2522,3.2485,3.2547,3.2555,3.2553,3.256,3.2577,3.2582,3.2609,3.2577,3.2573,3.2537,3.2612,3.2492,3.2487,3.2482,3.2407,3.2394,3.2384,0,0,0,0,0,3.252,3.2473,3.2496,3.2494,3.2497,3.2483,3.2483,3.2517,3.255,3.2528,3.2546,3.2582,3.2544,3.2573,3.2569,3.2533,3.2494,3.2488,3.2482,3.2412,3.2397,3.2384,0,0,0,0,0,0,3.2442,3.2476,3.2502,3.2462,3.2469,3.2495,3.2469,3.25,3.2497,3.2503,3.2544,3.2547,3.2509,3.2518,3.255,3.2477,3.2525,3.2518,3.2472,3.2458,3.2447,3.2444,3.2611,0,0,0,0,0,3.242,3.2407,3.2438,3.2399,3.2401,3.2434,3.2429,3.2455,3.2463,3.2466,3.2482,3.2487,3.2477,3.2468,3.246,3.241,3.2413,3.2383,3.2371,3.2362,3.2354,3.2327,3.2313,3.246,3.246,3.246,0,0,3.2374,3.2392,3.2381,3.2384,3.2392,3.2376,3.2436,3.2417,3.2405,3.2463,3.2433,3.2445,3.2454,3.2411,3.2394,3.2418,3.2315,3.2355,3.2347,3.2344,3.2319,3.2305,3.2293,3.2456,3.2457,3.2457,0,0,3.2282,3.2296,3.2264,3.2272,3.2285,3.2307,3.23,3.2321,3.2332,3.2304,3.2346,3.2332,3.2313,3.2317,3.2316,3.2227,3.2258,3.2223,3.2163,3.2135,3.2124,3.2114,3.2079,3.2067,3.2217,3.2216,3.2216,0,3.2223,3.2202,3.2243,3.2221,3.222,3.2274,3.2241,3.2247,3.2255,3.2252,3.2281,3.2258,3.2267,3.2226,3.2204,3.2203,3.2194,3.222,3.2123,3.2113,3.2104,3.2071,3.2059,3.2212,3.2212,3.2213,3.2213,0,3.2128,3.2113,3.2086,3.2094,3.2091,3.2063,3.2098,3.2089,3.2116,3.2134,3.2104,3.2118,3.2113,3.2106,3.2131,3.2067,3.2082,3.2116,3.2164,3.2085,3.2055,3.2043,3.2205,3.2207,3.2208,3.221,0,0,3.1985,3.2018,3.2007,3.2011,3.203,3.2018,3.1993,3.199,3.198,3.1985,3.1963,3.1946,3.1978,3.1977,3.2003,3.1979,3.1905,3.2016,3.2017,3.1992,3.1833,3.1805,3.1791,3.1927,3.1925,3.1924,3.1832,0,3.1895,3.1855,3.1891,3.1843,3.1828,3.1881,3.1858,3.1866,3.1884,3.1873,3.1892,3.1878,3.1922,3.1922,3.1901,3.1918,3.1873,3.1926,3.1904,3.1903,3.1897,3.1776,3.1746,3.1659,3.1821,3.1819,3.1817,0,3.1786,3.1787,3.1737,3.1759,3.1755,3.1734,3.1734,3.1724,3.1733,3.1748,3.1747,3.178,3.1755,3.1804,3.1769,3.1804,3.1798,3.1805,3.1803,3.1799,3.1853,3.1766,3.1632,3.1618,3.18,3.1801,3.1802,0,3.1683,3.1672,3.1641,3.1643,3.1669,3.1653,3.1662,3.1675,3.1671,3.1671,3.1668,3.1664,3.1661,3.1656,3.1686,3.172,3.1646,3.1698,3.1654,3.1653,3.1634,3.1634,3.1494,3.1634,3.1635,3.1635,3.1635,0,3.1577,3.1544,3.1595,3.1575,3.154,3.1582,3.1544,3.1559,3.157,3.1553,3.1599,3.1581,3.1624,3.161,3.1634,3.1599,3.1598,3.1607,3.1613,3.1601,3.16,3.1595,3.1601,3.1631,3.1632,3.1633,3.1633,0,3.1455,3.1488,3.1457,3.1485,3.1491,3.1463,3.1486,3.1468,3.1489,3.1467,3.1464,3.1496,3.1483,3.1513,3.1504,3.152,3.147,3.1487,3.1467,3.1471,3.1424,3.1427,3.1274,3.1255,3.141,3.1408,3.1407,0,3.1384,3.136,3.1386,3.1379,3.1386,3.1374,3.137,3.1411,3.1404,3.1414,3.1394,3.1385,3.138,3.1355,3.1377,3.1369,3.1385,3.1332,3.1384,3.1372,3.1381,3.138,3.1377,3.132,3.1318,3.1316,3.1315,0,3.1254,3.1272,3.1266,3.1265,3.126,3.1261,3.1265,3.1256,3.1299,3.129,3.1277,3.1273,3.1264,3.1253,3.1251,3.1259,3.1293,3.1299,3.1288,3.1274,3.1262,3.1265,3.1434,3.1302,3.1303,3.1304,3.1305,3.1305,3.1154,3.1135,3.115,3.1141,3.1149,3.1151,3.1136,3.1156,3.1147,3.1144,3.1168,3.115,3.116,3.1161,3.1166,3.1151,3.1175,3.1159,3.1155,3.1149,3.1141,3.1267,3.1151,3.1151,3.1152,3.1152,3.1152,0,3.1024,3.1037,3.1029,3.1034,3.1026,3.1062,3.1069,3.1059,3.1043,3.1051,3.1045,3.103,3.102,3.1042,3.1035,3.1018,3.1034,3.1015,3.1015,3.1016,3.1121,3.113,3.1003,3.1003,3.1003,3.1003,3.1003,3.1003,3.0955,3.0924,3.0944,3.0916,3.0929,3.0913,3.0913,3.0915,3.0922,3.0904,3.0896,3.0911,3.0924,3.0918,3.091,3.0916,3.091,3.0885,3.0896,3.0994,3.1008,3.1022,3.1031,3.0884,3.0884,3.0792,3.0791,3.079]}]]